| time (UTC) | temp F | wind direction | speed MPH | gust MPH | rain 1hr in | rain 24hr in | rain mn in | humidity % | barometer mb |
| 20260507044216 | 59 | 0.0 | 0.0 | 0.00 | 0.61 | 0.00 | 93 | 1011.5 | |
| 20260507043216 | 59 | 0.0 | 0.0 | 0.00 | 0.61 | 0.00 | 93 | 1011.5 | |
| 20260507042254 | 59 | 0.0 | 0.0 | 0.00 | 0.61 | 0.00 | 93 | 1011.5 | |
| 20260507041216 | 59 | 0.0 | 0.0 | 0.00 | 0.61 | 0.00 | 93 | 1011.4 | |
| 20260507040218 | 58 | 0.0 | 0.0 | 0.00 | 0.61 | 0.00 | 92 | 1011.3 | |
| 20260507035216 | 58 | 0.0 | 0.0 | 0.00 | 0.61 | 0.00 | 92 | 1011.2 | |
| 20260507034218 | 59 | 0.0 | 0.0 | 0.00 | 0.61 | 0.00 | 92 | 1011.2 | |
| 20260507033216 | 59 | 0.0 | 0.0 | 0.00 | 0.61 | 0.00 | 92 | 1011.3 | |
| 20260507032236 | 59 | 0.0 | 0.0 | 0.00 | 0.61 | 0.00 | 92 | 1011.2 | |
| 20260507031218 | 59 | 0.0 | 0.0 | 0.00 | 0.61 | 0.00 | 92 | 1011.2 | |
| 20260507030254 | 59 | 0.0 | 0.0 | 0.00 | 0.61 | 0.00 | 92 | 1011.3 | |
| 20260507025218 | 59 | 0.0 | 0.0 | 0.00 | 0.61 | 0.00 | 91 | 1011.2 | |
| 20260507024216 | 59 | 0.0 | 0.0 | 0.00 | 0.61 | 0.00 | 91 | 1011.2 | |
| 20260507023218 | 60 | 0.0 | 0.0 | 0.00 | 0.61 | 0.00 | 91 | 1011.2 | |
| 20260507022216 | 60 | 0.0 | 0.0 | 0.00 | 0.61 | 0.00 | 91 | 1011.3 | |
| 20260507021216 | 60 | 0.0 | 0.0 | 0.00 | 0.61 | 0.00 | 91 | 1011.1 | |
| 20260507020309 | 60 | 0.0 | 0.0 | 0.00 | 0.61 | 0.00 | 91 | 1011.2 | |
| 20260507015238 | 60 | 0.0 | 0.0 | 0.00 | 0.61 | 0.00 | 91 | 1011.2 | |
| 20260507014223 | 60 | 0.0 | 0.0 | 0.00 | 0.61 | 0.00 | 91 | 1011.2 | |
| 20260507013216 | 60 | 0.0 | 0.0 | 0.00 | 0.61 | 0.00 | 90 | 1011.3 | |
| 20260507012218 | 60 | 0.0 | 0.0 | 0.00 | 0.61 | 0.00 | 90 | 1011.2 | |
| 20260507010216 | 60 | 0.0 | 0.0 | 0.00 | 0.61 | 0.00 | 90 | 1011.3 | |
| 20260507005255 | 60 | 0.0 | 0.0 | 0.00 | 0.61 | 0.00 | 90 | 1011.2 | |
| 20260507004218 | 60 | 0.0 | 0.0 | 0.00 | 0.61 | 0.00 | 90 | 1011.2 | |
| 20260507003254 | 60 | 0.0 | 0.0 | 0.00 | 0.61 | 0.00 | 89 | 1011.3 | |
| 20260507002218 | 60 | 0.0 | 0.0 | 0.00 | 0.61 | 0.00 | 89 | 1011.2 | |
| 20260507001218 | 60 | 0.0 | 0.0 | 0.00 | 0.61 | 0.00 | 89 | 1011.2 | |
| 20260507000216 | 60 | 0.0 | 0.0 | 0.00 | 0.61 | 0.00 | 89 | 1011.3 | |
| 20260506235216 | 60 | 0.0 | 0.0 | 0.00 | 0.61 | 0.00 | 89 | 1011.3 | |
| 20260506234218 | 60 | 0.0 | 0.0 | 0.00 | 0.61 | 0.00 | 88 | 1011.4 | |
| 20260506233218 | 60 | 0.0 | 0.0 | 0.00 | 0.61 | 0.00 | 88 | 1011.4 | |
| 20260506232218 | 60 | 0.0 | 0.0 | 0.00 | 0.61 | 0.00 | 88 | 1011.5 | |
| 20260506231218 | 60 | 0.0 | 0.0 | 0.00 | 0.61 | 0.00 | 88 | 1011.7 | |
| 20260506230218 | 60 | 0.0 | 0.0 | 0.00 | 0.61 | 0.00 | 88 | 1011.7 | |
| 20260506225237 | 60 | 0.0 | 7.0 | 0.00 | 0.61 | 0.00 | 87 | 1011.6 | |
| 20260506224216 | 60 | 0.0 | 0.0 | 0.00 | 0.61 | 0.00 | 87 | 1011.6 | |
| 20260506223216 | 60 | 135 | 4.0 | 22.0 | 0.00 | 0.61 | 0.00 | 87 | 1011.6 |
| 20260506222255 | 60 | 0.0 | 0.0 | 0.00 | 0.61 | 0.00 | 87 | 1011.7 | |
| 20260506221218 | 59 | 0.0 | 0.0 | 0.00 | 0.61 | 0.00 | 87 | 1011.6 | |
| 20260506220255 | 59 | 0.0 | 0.0 | 0.00 | 0.61 | 0.00 | 88 | 1011.5 | |
| 20260506215217 | 59 | 0.0 | 0.0 | 0.00 | 0.61 | 0.61 | 88 | 1011.4 | |
| 20260506214245 | 59 | 0.0 | 0.0 | 0.00 | 0.61 | 0.61 | 89 | 1011.5 | |
| 20260506213217 | 59 | 0.0 | 0.0 | 0.00 | 0.61 | 0.61 | 90 | 1011.4 | |
| 20260506212219 | 59 | 0.0 | 0.0 | 0.00 | 0.61 | 0.61 | 90 | 1011.4 | |
| 20260506211217 | 60 | 0.0 | 0.0 | 0.00 | 0.61 | 0.61 | 89 | 1011.5 | |
| 20260506210219 | 60 | 0.0 | 0.0 | 0.00 | 0.61 | 0.61 | 89 | 1011.5 | |
| 20260506205219 | 60 | 0.0 | 0.0 | 0.00 | 0.61 | 0.61 | 89 | 1011.6 | |
| 20260506204256 | 60 | 0.0 | 0.0 | 0.00 | 0.61 | 0.61 | 89 | 1011.5 | |
| 20260506203219 | 59 | 0.0 | 0.0 | 0.00 | 0.61 | 0.61 | 89 | 1011.5 | |
| 20260506202217 | 59 | 0.0 | 1.0 | 0.00 | 0.61 | 0.61 | 89 | 1011.4 | |
| 20260506201256 | 59 | 0.0 | 0.0 | 0.00 | 0.61 | 0.61 | 90 | 1011.4 | |
| 20260506200218 | 59 | 0.0 | 0.0 | 0.00 | 0.61 | 0.61 | 91 | 1011.3 | |
| 20260506195240 | 60 | 158 | 1.0 | 4.0 | 0.00 | 0.61 | 0.61 | 92 | 1011.1 |
| 20260506194240 | 60 | 0.0 | 0.0 | 0.00 | 0.61 | 0.61 | 92 | 1011.1 | |
| 20260506193256 | 60 | 0.0 | 0.0 | 0.00 | 0.61 | 0.61 | 92 | 1011.0 | |
| 20260506192240 | 60 | 158 | 9.0 | 14.0 | 0.00 | 0.61 | 0.61 | 93 | 1010.9 |
| 20260506191218 | 61 | 0.0 | 0.0 | 0.00 | 0.61 | 0.61 | 93 | 1010.6 | |
| 20260506190245 | 61 | 0.0 | 0.0 | 0.00 | 0.61 | 0.61 | 93 | 1010.4 | |
| 20260506185217 | 61 | 0.0 | 0.0 | 0.00 | 0.61 | 0.61 | 94 | 1010.2 | |
| 20260506184219 | 61 | 0.0 | 0.0 | 0.00 | 0.61 | 0.61 | 94 | 1010.2 | |
| 20260506183256 | 61 | 0.0 | 0.0 | 0.00 | 0.61 | 0.61 | 93 | 1010.1 | |
| 20260506182225 | 61 | 0.0 | 0.0 | 0.00 | 0.61 | 0.61 | 94 | 1010.1 | |
| 20260506181316 | 61 | 0.0 | 0.0 | 0.00 | 0.61 | 0.61 | 93 | 1010.2 | |
| 20260506180220 | 61 | 0.0 | 0.0 | 0.01 | 0.61 | 0.61 | 93 | 1010.1 | |
| 20260506175219 | 62 | 0.0 | 0.0 | 0.01 | 0.61 | 0.61 | 92 | 1010.1 | |
| 20260506174318 | 62 | 0.0 | 0.0 | 0.10 | 0.61 | 0.61 | 92 | 1010.0 | |
| 20260506173219 | 62 | 0.0 | 0.0 | 0.11 | 0.61 | 0.61 | 92 | 1010.1 | |
| 20260506172256 | 62 | 0.0 | 0.0 | 0.11 | 0.61 | 0.61 | 92 | 1010.1 | |
| 20260506171254 | 62 | 0.0 | 0.0 | 0.11 | 0.61 | 0.61 | 91 | 1009.9 | |
| 20260506170217 | 62 | 0.0 | 0.0 | 0.10 | 0.61 | 0.61 | 90 | 1009.7 | |
| 20260506165254 | 63 | 203 | 2.0 | 5.0 | 0.10 | 0.61 | 0.61 | 88 | 1009.8 |
| 20260506164218 | 64 | 248 | 8.0 | 12.0 | 0.01 | 0.51 | 0.51 | 86 | 1009.8 |
| 20260506163218 | 65 | 0.0 | 0.0 | 0.00 | 0.50 | 0.50 | 85 | 1008.9 | |
| 20260506162215 | 65 | 0.0 | 0.0 | 0.00 | 0.50 | 0.50 | 85 | 1009.4 | |
| 20260506161216 | 65 | 0.0 | 0.0 | 0.00 | 0.50 | 0.50 | 85 | 1009.6 | |
| 20260506160254 | 65 | 0.0 | 0.0 | 0.00 | 0.50 | 0.50 | 85 | 1009.6 | |
| 20260506155236 | 65 | 0.0 | 0.0 | 0.00 | 0.51 | 0.50 | 85 | 1009.7 | |
| 20260506154218 | 65 | 0.0 | 0.0 | 0.00 | 0.51 | 0.50 | 86 | 1009.8 | |
| 20260506153216 | 64 | 0.0 | 0.0 | 0.00 | 0.51 | 0.50 | 87 | 1009.9 | |
| 20260506152217 | 64 | 0.0 | 0.0 | 0.00 | 0.51 | 0.50 | 88 | 1010.1 | |
| 20260506151216 | 64 | 0.0 | 0.0 | 0.00 | 0.52 | 0.50 | 88 | 1010.2 | |
| 20260506150216 | 64 | 0.0 | 0.0 | 0.00 | 0.53 | 0.50 | 88 | 1010.4 | |
| 20260506145218 | 64 | 0.0 | 0.0 | 0.01 | 0.54 | 0.50 | 88 | 1010.4 | |
| 20260506144218 | 64 | 0.0 | 0.0 | 0.01 | 0.54 | 0.50 | 89 | 1010.6 | |
| 20260506143223 | 63 | 0.0 | 0.0 | 0.01 | 0.54 | 0.50 | 90 | 1010.6 | |
| 20260506142216 | 63 | 0.0 | 0.0 | 0.01 | 0.55 | 0.50 | 92 | 1010.6 | |
| 20260506141218 | 62 | 0.0 | 0.0 | 0.01 | 0.56 | 0.50 | 92 | 1010.7 | |
| 20260506140216 | 62 | 0.0 | 0.0 | 0.01 | 0.56 | 0.50 | 92 | 1010.7 | |
| 20260506135223 | 62 | 0.0 | 0.0 | 0.00 | 0.55 | 0.50 | 92 | 1010.9 | |
| 20260506134223 | 62 | 0.0 | 0.0 | 0.00 | 0.55 | 0.50 | 91 | 1010.8 | |
| 20260506133254 | 62 | 0.0 | 0.0 | 0.00 | 0.56 | 0.50 | 91 | 1011.0 | |
| 20260506132218 | 62 | 0.0 | 0.0 | 0.00 | 0.56 | 0.50 | 91 | 1011.2 | |
| 20260506131217 | 62 | 0.0 | 0.0 | 0.00 | 0.56 | 0.50 | 91 | 1011.2 | |
| 20260506130218 | 61 | 180 | 1.0 | 3.0 | 0.00 | 0.56 | 0.50 | 91 | 1011.4 |
| 20260506125216 | 61 | 0.0 | 0.0 | 0.00 | 0.56 | 0.50 | 92 | 1011.4 | |
| 20260506124238 | 61 | 0.0 | 3.0 | 0.01 | 0.56 | 0.50 | 92 | 1011.4 | |
| 20260506123254 | 61 | 158 | 7.0 | 11.0 | 0.02 | 0.56 | 0.50 | 92 | 1011.4 |
| 20260506122249 | 61 | 158 | 7.0 | 13.0 | 0.02 | 0.56 | 0.50 | 93 | 1011.4 |
| 20260506121218 | 61 | 158 | 1.0 | 6.0 | 0.02 | 0.56 | 0.50 | 93 | 1011.3 |
| 20260506120218 | 61 | 158 | 1.0 | 4.0 | 0.02 | 0.56 | 0.50 | 93 | 1011.4 |
| 20260506115218 | 60 | 0.0 | 0.0 | 0.02 | 0.56 | 0.50 | 93 | 1011.4 | |
| 20260506114216 | 60 | 158 | 2.0 | 7.0 | 0.02 | 0.56 | 0.49 | 93 | 1011.3 |
| 20260506113254 | 60 | 158 | 4.0 | 8.0 | 0.01 | 0.55 | 0.48 | 93 | 1011.4 |
| 20260506112218 | 60 | 0.0 | 2.0 | 0.01 | 0.57 | 0.48 | 93 | 1011.5 | |
| 20260506111218 | 60 | 158 | 3.0 | 7.0 | 0.01 | 0.57 | 0.48 | 93 | 1011.5 |
| 20260506110249 | 60 | 0.0 | 0.0 | 0.01 | 0.58 | 0.48 | 93 | 1011.6 | |
| 20260506105218 | 60 | 0.0 | 0.0 | 0.01 | 0.59 | 0.48 | 93 | 1011.6 | |
| 20260506104255 | 60 | 135 | 1.0 | 5.0 | 0.01 | 0.59 | 0.47 | 94 | 1011.7 |
| 20260506103216 | 60 | 135 | 4.0 | 10.0 | 0.01 | 0.61 | 0.47 | 94 | 1011.7 |
| 20260506102218 | 59 | 135 | 1.0 | 3.0 | 0.01 | 0.61 | 0.47 | 94 | 1011.7 |
| 20260506101216 | 59 | 135 | 4.0 | 8.0 | 0.01 | 0.61 | 0.47 | 93 | 1011.9 |
| 20260506100218 | 59 | 135 | 5.0 | 9.0 | 0.01 | 0.61 | 0.47 | 93 | 1012.0 |
| 20260506095315 | 59 | 135 | 5.0 | 8.0 | 0.01 | 0.61 | 0.47 | 94 | 1012.0 |
| 20260506094218 | 60 | 135 | 4.0 | 11.0 | 0.01 | 0.60 | 0.46 | 94 | 1012.0 |
| 20260506093218 | 60 | 135 | 5.0 | 9.0 | 0.02 | 0.60 | 0.46 | 94 | 1012.0 |
| 20260506092216 | 60 | 0.0 | 2.0 | 0.02 | 0.60 | 0.46 | 95 | 1011.9 | |
| 20260506091251 | 60 | 113 | 2.0 | 7.0 | 0.04 | 0.60 | 0.46 | 95 | 1011.8 |
| 20260506090216 | 60 | 0.0 | 0.0 | 0.06 | 0.60 | 0.46 | 95 | 1011.9 | |
| 20260506085244 | 60 | 0.0 | 0.0 | 0.07 | 0.60 | 0.46 | 95 | 1011.8 | |
| 20260506084255 | 60 | 0.0 | 0.0 | 0.09 | 0.59 | 0.46 | 95 | 1011.8 | |
| 20260506083218 | 60 | 0.0 | 4.0 | 0.09 | 0.58 | 0.45 | 95 | 1011.8 | |
| 20260506082218 | 59 | 0.0 | 3.0 | 0.09 | 0.57 | 0.44 | 95 | 1011.8 | |
| 20260506081216 | 59 | 0.0 | 0.0 | 0.08 | 0.56 | 0.43 | 95 | 1011.9 | |
| 20260506080218 | 59 | 0.0 | 0.0 | 0.07 | 0.54 | 0.41 | 95 | 1011.6 | |
| 20260506073256 | 59 | 0.0 | 0.0 | 0.06 | 0.50 | 0.36 | 95 | 1011.7 | |
| 20260506072218 | 59 | 0.0 | 0.0 | 0.06 | 0.49 | 0.35 | 95 | 1011.7 | |
| 20260506071239 | 59 | 0.0 | 0.0 | 0.06 | 0.48 | 0.35 | 95 | 1011.7 | |
| 20260506070216 | 59 | 0.0 | 0.0 | 0.06 | 0.47 | 0.34 | 95 | 1011.8 | |
| 20260506062236 | 58 | 0.0 | 0.0 | 0.30 | 0.43 | 0.30 | 94 | 1011.7 | |
| 20260506061218 | 58 | 0.0 | 0.0 | 0.29 | 0.43 | 0.29 | 94 | 1011.6 | |
| 20260506060255 | 58 | 0.0 | 0.0 | 0.28 | 0.41 | 0.28 | 94 | 1011.6 | |
| 20260506051216 | 58 | 0.0 | 0.0 | 0.00 | 0.13 | 0.00 | 94 | 1011.2 | |
| 20260506050238 | 58 | 0.0 | 0.0 | 0.00 | 0.13 | 0.00 | 94 | 1011.3 |